Location: Chicago
(41.8500°N, 87.6500°W)
Time: 00:19:42
(UTC-05:00)

ISS - Visible Passes

Search period start: 19 April 2014 00:00
Search period end: 29 April 2014 00:00
Orbit: 414 x 419 km, 51.6° (Epoch: 18 April)

Date Brightness Start Highest point End Pass type
(mag) Time Alt. Az. Time Alt. Az. Time Alt. Az.
19 Apr -2.8 21:15:51 10° NW 21:19:08 51° NNE 21:19:42 44° ENE visible
20 Apr -2.1 20:27:32 10° NW 20:30:39 34° NNE 20:33:14 13° E visible
20 Apr -1.3 22:04:18 10° WNW 22:06:08 25° W 22:06:08 25° W visible
21 Apr -3.1 21:15:42 10° WNW 21:19:01 62° SW 21:19:40 49° SSE visible
22 Apr -3.3 20:27:11 10° NW 20:30:33 77° NE 20:33:12 15° ESE visible
22 Apr -0.5 22:05:17 10° WSW 22:06:06 12° WSW 22:06:06 12° WSW visible
23 Apr -1.4 21:15:51 10° W 21:18:30 22° SW 21:19:40 18° SSW visible
24 Apr -2.1 20:26:55 10° WNW 20:30:04 37° SW 20:33:11 10° SSE visible
26 Apr -0.6 20:27:21 10° W 20:29:11 14° SW 20:31:01 10° SSW visible
